SL-16 DEB

Satellite information

Favourite Embed

Satellite Type and Status

DEBRISIN ORBIT

Key statistics

Satellite SL-16 DEB at a glance.

Uptime

14111

Days in orbit

Revolutions

≈ 13.7

Per day

Orbit

LEO

Low Earth Orbit

Inclination

71.0

Latest

Satellite identification and parameters

Extended collection of information and parameters for SL-16 DEB.

Object identification

Identified? True

Debris? True

Object name: SL-16 DEB

International designator: 1987-027D

Object number (NORAD): 18417

Object ID (CCSDS): 18417

Country: COMMONWEALTH OF INDEPENDENT STATES (CIS)

Current information (Y/N): Y

RCS size: SMALL

Orbital parameters

Period: 104.758 minutes

Inclination: 70.9994 deg

SMA: 7361.24 km

Apoapsis: 1132.922 km

Periapsis: 833.287 km

RAAN: 65.9619 deg

Eccentricy: 0.0203522

Argument of periapsis: 238.227 deg

Mean anomaly: 278.6119 deg

Mean motion: 13.74599886 rev/day

Mean motion (dot): 0.0000013 rev/day2

B* drag term: 0.00015791 1/REarth

Two-line elements (TLE)

Creation date: Nov. 3, 2025, 11:16 p.m.

Reference frame: TEME

Reference center: EARTH

Epoch: Nov. 3, 2025, 7:09 p.m. UTC

TLE line 0: 0 SL-16 DEB

TLE line 1: 1 18417U 87027D 25307.79839450 .00000130 00000-0 15791-3 0 9997

TLE line 2: 2 18417 70.9994 65.9619 0203522 238.2270 278.6119 13.74599886936546

Live tracking on map

Real-time ground track for satellite SL-16 DEB.

In-orbit conjunctions

A list of the most updated potential collisions computed for object SL-16 DEB.

Target Orbit TCA Probability of collision Miss distance Type
CALSPHERE 4(A) LEO 2025-01-16 06:05:48 0.006381624 26.0 (m) PAYLOAD

Associated space launch

Dynamic simulator of the Tselina-2 ELINT satellite

SL-16 DEB was lifted into orbit during the mission ‘Zenit-2 | GVM Tselina-2’, on board a Zenit-2 space rocket.

The launch took place on March 18, 1987, 8:30 a.m. from 45/1.

For more information about the launch, click the button.

Launch to space Zenit-2 | GVM Tselina-2
Zenit-2 | GVM Tselina-2

Agency: N/A

Status: Launch Successful

Launch date: March 18, 1987, 8:30 a.m. UTC

Rocket: Zenit-2

Launch pad: 45/1

Location: Baikonur Cosmodrome, Republic of Kazakhstan

...

Latest news about this satellite

There are no fresh news available about this satellite. Check back as we update our databases every day.


Newsletter sign-up

Weekly statistics, charts and insights to help you stay on top of the space industry.